Midland, MI

11:19 AM EDT on April 24, 2017 (GMT -0400)
Barstow

Weather History for KIKW - July, 2013

Change the Weather History Date:

Monday, July 22, 2013

  Actual Average (KMBS) Record (KMBS)
Temperature  
Mean Temperature 74 °F -  
Max Temperature 84 °F 80 °F 91 °F (2001)
Min Temperature 63 °F 57 °F 52 °F (2000)
Cooling Degree Days 8    
Growing Degree Days 24 (Base 50)    
Moisture  
Dew Point 64 °F    
Average Humidity 73    
Maximum Humidity 97    
Minimum Humidity 52    
Precipitation  
Precipitation 0.17 in - - ()
Sea Level Pressure  
Sea Level Pressure 29.85 in    
Wind  
Wind Speed 6 mph (SSE)    
Max Wind Speed 13 mph    
Max Gust Speed 17 mph    
Visibility 10 miles    
Events Rain    
Averages and records for this station are not official NWS values.
T = Trace of Precipitation, MM = Missing Value Source: NWS Daily Summary

Daily Weather History Graph

Daily Weather History Graph

Search for Another Location

Airport or City:

Trip Planner

Search our weather history database for the weather conditions in past years. The results will help you decide how hot, cold, wet, or windy it might be!

Date:

Astronomy

Jul. 22, 2013 Rise Set
Actual Time 6:16 AM EDT 9:10 PM EDT
Civil Twilight 5:42 AM EDT 9:44 PM EDT
Nautical Twilight 4:59 AM EDT 10:27 PM EDT
Astronomical Twilight 4:08 AM EDT 11:17 PM EDT
Moon 8:52 PM EDT (7/22) 6:13 AM EDT (7/22)
Length of Visible Light 16h 01m
Length of Day
14h 54m
Full, 100% of the Moon is Illuminated
Jul 22
Full
Jul 22
Full
Jul 29
Last Quarter
Aug 6
New
Aug 14
First Quarter

Hourly Weather History & Observations

Time (EDT) Temp. Heat Index Dew Point Humidity Pressure Visibility Wind Dir Wind Speed Gust Speed Precip Events Conditions
12:14 AM 68.4 °F - 58.8 °F 71% 29.96 in 10.0 mi ESE 8.1 mph - N/A   Scattered Clouds
12:34 AM 68.4 °F - 58.5 °F 71% 29.97 in 10.0 mi ESE 5.8 mph - N/A   Scattered Clouds
12:53 AM 68.2 °F - 58.3 °F 71% 29.97 in 10.0 mi East 8.1 mph - N/A   Clear
1:13 AM 67.5 °F - 57.9 °F 71% 29.95 in 10.0 mi East 6.9 mph - N/A   Clear
1:34 AM 67.5 °F - 57.7 °F 71% 29.95 in 10.0 mi ESE 9.2 mph - N/A   Scattered Clouds
1:53 AM 67.5 °F - 57.6 °F 70% 29.95 in 10.0 mi ESE 6.9 mph - N/A   Mostly Cloudy
2:13 AM 66.9 °F - 58.3 °F 74% 29.95 in 7.0 mi East 4.6 mph - 0.01 in Rain Heavy Rain
2:33 AM 63.5 °F - 60.1 °F 89% 29.98 in 10.0 mi West 8.1 mph - 0.06 in Rain Light Rain
2:53 AM 63.1 °F - 61.7 °F 95% 29.97 in 4.0 mi East 3.5 mph - 0.15 in Rain Rain
3:13 AM 63.1 °F - 62.1 °F 96% 29.95 in 10.0 mi ENE 6.9 mph - 0.02 in Rain Light Rain
3:33 AM 63.1 °F - 62.2 °F 97% 29.93 in 10.0 mi East 8.1 mph - 0.02 in   Light Drizzle
3:53 AM 63.1 °F - 62.1 °F 96% 29.93 in 10.0 mi East 5.8 mph - 0.02 in   Overcast
4:13 AM 63.1 °F - 61.7 °F 95% 29.92 in 10.0 mi ENE 4.6 mph - N/A   Overcast
4:33 AM 63.1 °F - 62.1 °F 96% 29.92 in 10.0 mi East 6.9 mph - N/A   Overcast
4:53 AM 63.1 °F - 61.7 °F 95% 29.91 in 10.0 mi ENE 4.6 mph - N/A   Overcast
5:13 AM 63.1 °F - 61.7 °F 95% 29.90 in 10.0 mi ENE 4.6 mph - N/A   Overcast
5:33 AM 63.5 °F - 61.9 °F 94% 29.89 in 10.0 mi ENE 5.8 mph - N/A Rain Light Rain
5:53 AM 63.7 °F - 62.1 °F 94% 29.90 in 10.0 mi East 3.5 mph - N/A   Overcast
6:14 AM 64.4 °F - 62.4 °F 93% 29.91 in 10.0 mi Calm Calm - N/A   Overcast
6:33 AM 63.7 °F - 62.1 °F 94% 29.91 in 10.0 mi Calm Calm - N/A   Overcast
6:53 AM 64.2 °F - 62.4 °F 94% 29.90 in 10.0 mi East 5.8 mph - N/A   Overcast
7:14 AM 65.1 °F - 61.9 °F 89% 29.90 in 10.0 mi East 5.8 mph - N/A   Overcast
7:33 AM 65.3 °F - 61.7 °F 88% 29.89 in 10.0 mi ESE 9.2 mph - N/A   Overcast
7:53 AM 65.3 °F - 61.7 °F 88% 29.89 in 10.0 mi SE 3.5 mph - N/A   Overcast
8:13 AM 65.8 °F - 61.7 °F 86% 29.89 in 10.0 mi Calm Calm - N/A   Overcast
8:22 AM 66.6 °F - 62.4 °F 86% 29.90 in 10.0 mi Calm Calm - N/A   Overcast
8:56 AM 68.0 °F - 62.6 °F 83% 29.90 in 10.0 mi ESE 3.5 mph - N/A   Overcast
9:07 AM 67.5 °F - 61.7 °F 82% 29.90 in 10.0 mi Calm Calm - N/A   Overcast
9:13 AM 67.5 °F - 61.5 °F 81% 29.90 in 10.0 mi Calm Calm - N/A   Mostly Cloudy
9:33 AM 68.4 °F - 62.2 °F 81% 29.89 in 10.0 mi SE 3.5 mph - N/A   Scattered Clouds
9:44 AM 69.6 °F - 62.6 °F 78% 29.89 in 10.0 mi East 4.6 mph - N/A   Mostly Cloudy
10:14 AM 70.7 °F - 63.5 °F 78% 29.89 in 10.0 mi Calm Calm - N/A   Mostly Cloudy
10:33 AM 73.8 °F - 64.9 °F 74% 29.88 in 10.0 mi SSE 4.6 mph - N/A   Scattered Clouds
10:54 AM 75.4 °F - 65.5 °F 71% 29.89 in 10.0 mi SSE 5.8 mph - N/A   Clear
11:13 AM 75.4 °F - 65.7 °F 72% 29.88 in 10.0 mi SSE 5.8 mph - N/A   Mostly Cloudy
11:33 AM 77.2 °F - 66.9 °F 71% 29.88 in 10.0 mi South 4.6 mph - N/A   Overcast
11:54 AM 77.5 °F - 66.6 °F 69% 29.88 in 10.0 mi South 11.5 mph - N/A   Mostly Cloudy
12:13 PM 78.3 °F - 66.4 °F 67% 29.88 in 10.0 mi South 11.5 mph 17.3 mph N/A   Mostly Cloudy
12:34 PM 79.3 °F - 67.3 °F 66% 29.87 in 10.0 mi SSW 11.5 mph - N/A   Mostly Cloudy
12:54 PM 78.4 °F - 67.1 °F 68% 29.87 in 10.0 mi SSW 6.9 mph - N/A   Mostly Cloudy
1:13 PM 78.8 °F - 67.1 °F 67% 29.86 in 10.0 mi South 5.8 mph - N/A   Scattered Clouds
1:34 PM 80.1 °F 82.7 °F 68.0 °F 67% 29.85 in 10.0 mi SSW 6.9 mph - N/A   Scattered Clouds
1:53 PM 80.4 °F 83.1 °F 68.2 °F 66% 29.84 in 10.0 mi South 9.2 mph - N/A   Scattered Clouds
2:14 PM 81.0 °F 83.6 °F 67.6 °F 64% 29.84 in 10.0 mi South 9.2 mph - N/A   Scattered Clouds
2:34 PM 81.5 °F 83.9 °F 66.9 °F 61% 29.84 in 10.0 mi SSW 9.2 mph - N/A   Scattered Clouds
2:53 PM 81.7 °F 84.2 °F 66.9 °F 61% 29.83 in 10.0 mi SW 9.2 mph - N/A   Scattered Clouds
3:14 PM 84.2 °F 86.1 °F 65.5 °F 53% 29.83 in 10.0 mi WSW 11.5 mph - N/A   Scattered Clouds
3:33 PM 83.7 °F 86.2 °F 67.1 °F 57% 29.82 in 10.0 mi SSW 10.4 mph - N/A   Scattered Clouds
3:53 PM 83.1 °F 85.7 °F 67.1 °F 58% 29.81 in 10.0 mi SW 11.5 mph - N/A   Scattered Clouds
4:14 PM 83.3 °F 85.7 °F 66.4 °F 57% 29.80 in 10.0 mi South 10.4 mph - N/A   Scattered Clouds
4:34 PM 82.8 °F 84.7 °F 65.8 °F 56% 29.80 in 10.0 mi SSW 9.2 mph - N/A   Scattered Clouds
4:53 PM 82.6 °F 84.7 °F 66.0 °F 57% 29.79 in 10.0 mi SSW 11.5 mph 17.3 mph N/A   Clear
5:14 PM 83.5 °F 85.5 °F 65.8 °F 55% 29.78 in 10.0 mi SSW 11.5 mph - N/A   Clear
5:33 PM 83.7 °F 85.3 °F 64.9 °F 53% 29.78 in 10.0 mi South 12.7 mph - N/A   Clear
5:54 PM 83.1 °F 84.8 °F 65.1 °F 54% 29.77 in 10.0 mi South 9.2 mph - N/A   Scattered Clouds
6:13 PM 82.9 °F 84.2 °F 63.7 °F 52% 29.77 in 10.0 mi SSW 9.2 mph - N/A   Scattered Clouds
6:34 PM 83.3 °F 84.8 °F 64.6 °F 53% 29.76 in 10.0 mi SSW 4.6 mph - N/A   Clear
6:54 PM 82.8 °F 84.0 °F 63.5 °F 52% 29.75 in 10.0 mi SW 9.2 mph - N/A   Clear
7:06 PM 82.4 °F 83.5 °F 63.3 °F 52% 29.75 in 10.0 mi SSW 6.9 mph - N/A   Clear
7:33 PM 82.0 °F 83.8 °F 64.8 °F 56% 29.75 in 10.0 mi South 9.2 mph - N/A   Clear
7:53 PM 81.1 °F 82.9 °F 65.3 °F 58% 29.74 in 10.0 mi South 6.9 mph - N/A   Clear
8:14 PM 80.6 °F 82.7 °F 65.8 °F 61% 29.74 in 10.0 mi South 5.8 mph - N/A   Clear
8:33 PM 79.2 °F - 65.3 °F 62% 29.74 in 10.0 mi South 5.8 mph - N/A   Clear
8:54 PM 77.5 °F - 65.3 °F 66% 29.75 in 10.0 mi South 5.8 mph - N/A   Clear
9:14 PM 76.6 °F - 65.7 °F 69% 29.76 in 10.0 mi SSW 4.6 mph - N/A   Clear
9:33 PM 75.4 °F - 65.5 °F 71% 29.76 in 10.0 mi South 3.5 mph - N/A   Clear
9:54 PM 75.2 °F - 64.9 °F 70% 29.75 in 10.0 mi South 4.6 mph - N/A   Clear
10:14 PM 74.5 °F - 64.4 °F 71% 29.75 in 10.0 mi SSE 5.8 mph - N/A   Clear
10:34 PM 74.3 °F - 64.4 °F 71% 29.74 in 10.0 mi South 4.6 mph - N/A   Clear
10:54 PM 73.2 °F - 64.4 °F 74% 29.75 in 10.0 mi South 4.6 mph - N/A   Clear
11:13 PM 72.5 °F - 64.0 °F 75% 29.76 in 10.0 mi South 3.5 mph - N/A   Clear
11:34 PM 71.6 °F - 64.4 °F 78% 29.76 in 10.0 mi South 4.6 mph - N/A   Clear
11:54 PM 71.4 °F - 64.4 °F 78% 29.75 in 10.0 mi SSW 5.8 mph - N/A   Clear